Regional Weather Roundup
Issued by NWS

Home | Current Version | Previous Version | Text Only | Print | Product List | Glossary Off
Versions: 1 2 3 4 5 6 7 8 9 10 11 12 13 14 15 16 17 18 19 20 21 22 23 24 25 26 27 28 29 30 31 32 33 34 35 36 37 38 39 40 41 42 43 44 45 46 47 48 49 50

000
ASUS43 KFSD 270910
RWRSD

WEATHER ROUNDUP FOR SOUTH DAKOTA
NATIONAL WEATHER SERVICE SIOUX FALLS SD
400 AM CDT THU APR 27 2017

NOTE: "FAIR" INDICATES FEW OR NO CLOUDS BELOW 12,000 FEET WITH NO
SIGNIFICANT WEATHER AND/OR OBSTRUCTIONS TO VISIBILITY.


SDZ001>005-009-010-012>017-271000-
NORTHWEST AND NORTH CENTRAL SOUTH DAKOTA

CITY           SKY/WX    TMP DP  RH WIND       PRES   REMARKS
BUFFALO          N/A     28  24  85 E10       29.61F WCI  19
FAITH            N/A     27  25  92 SE5       29.72R WCI  22
MOBRIDGE       CLOUDY    30  24  78 CALM      29.71S
$$

SDZ012>016-024>037-041>051-057-063-072>074-271000-
SOUTHWEST AND SOUTH CENTRAL SOUTH DAKOTA

CITY           SKY/WX    TMP DP  RH WIND       PRES   REMARKS
RAPID CTY ARPT CLEAR     27  24  89 NW3       29.66F
PIERRE         CLOUDY    27  24  89 NW6       29.71F WCI  20
CUSTER         CLOUDY    28  24  85 CALM      29.61F
ELLSWORTH AFB  CLEAR     31  28  89 CALM      29.65F
PHILIP         CLEAR     26  24  92 NE8       29.71F WCI  18
PINE RIDGE     PTCLDY    26  25  96 S5        29.66F WCI  20
SPEARFISH      FAIR      28  25  86 CALM      29.63F
WINNER         FAIR      23  20  88 SW5       29.70F WCI  17
$$

SDZ004>011-016>023-039-040-271000-
NORTHEAST SOUTH DAKOTA

CITY           SKY/WX    TMP DP  RH WIND       PRES   REMARKS
ABERDEEN       CLOUDY    29  23  78 N8        29.71F WCI  21
WATERTOWN      CLOUDY    28  24  85 NW17      29.63S WCI  16
BROOKINGS      CLOUDY    28  24  85 N13       29.63F WCI  17
SISSETON         N/A     28  25  88 N14       29.66S WCI  17
$$

SDZ017-020-022-023-036>040-048>070-271000-
SOUTHEAST SOUTH DAKOTA

CITY           SKY/WX    TMP DP  RH WIND       PRES   REMARKS
SIOUX FALLS    CLOUDY    31  26  82 NW12      29.63F WCI  22
HURON          CLOUDY    30  25  81 N10       29.70S WCI  21
CHAMBERLAIN    CLOUDY    32  30  92 W7        29.71S WCI  26
MITCHELL       CLOUDY    32  26  78 NW13      29.70S WCI  22
YANKTON        CLOUDY    34  25  69 NW12      29.67S WCI  25
$$

ABBREVIATIONS USED IN REMARKS
   TC - TEMPERATURE IN CELSIUS
  WCI - WIND CHILL INDEX
   HX - HEAT INDEX
  VSB - VISIBILITY




USA.gov is the U.S. government's official web portal to all federal, state and local government web resources and services.